Time,TemperatureF,DewpointF,PressureIn,WindDirection,WindDirectionDegrees,WindSpeedMPH,WindSpeedGustMPH,Humidity,HourlyPrecipIn,Conditions,Clouds,dailyrainin,SoftwareType,DateUTC
2013-01-15 00:00:00,40.5,37.4,30.33,North,355,3.6,11.0,90,0.07,,,0.08,WX3IN1Plus v1.30,2013-01-15 05:00:00,
2013-01-15 00:02:00,40.4,37.2,30.33,NNE,23,0.9,6.3,90,0.07,,,0.08,WX3IN1Plus v1.30,2013-01-15 05:02:00,
2013-01-15 00:07:00,40.5,37.4,30.34,North,11,2.7,4.9,90,0.07,,,0.08,WX3IN1Plus v1.30,2013-01-15 05:07:00,
2013-01-15 00:12:00,40.2,37.7,30.34,North,354,0.0,4.4,91,0.06,,,0.08,WX3IN1Plus v1.30,2013-01-15 05:12:00,
2013-01-15 00:17:00,40.3,37.7,30.33,NE,40,1.5,4.1,91,0.06,,,0.08,WX3IN1Plus v1.30,2013-01-15 05:17:00,
2013-01-15 00:22:00,40.4,37.7,30.34,NE,42,1.3,5.0,91,0.05,,,0.08,WX3IN1Plus v1.30,2013-01-15 05:22:00,
2013-01-15 00:27:00,40.2,37.7,30.34,ENE,71,1.8,5.2,91,0.04,,,0.08,WX3IN1Plus v1.30,2013-01-15 05:27:00,
2013-01-15 00:32:00,40.5,37.9,30.33,NE,50,2.6,3.9,91,0.02,,,0.08,WX3IN1Plus v1.30,2013-01-15 05:32:00,
2013-01-15 00:37:00,40.2,37.7,30.33,ENE,73,0.8,4.7,91,0.01,,,0.08,WX3IN1Plus v1.30,2013-01-15 05:37:00,
2013-01-15 00:42:00,40.1,37.7,30.32,NNE,30,1.4,5.2,91,0.02,,,0.09,WX3IN1Plus v1.30,2013-01-15 05:42:00,
2013-01-15 00:47:00,40.3,37.7,30.32,NE,43,1.2,3.7,91,0.02,,,0.09,WX3IN1Plus v1.30,2013-01-15 05:47:00,
2013-01-15 00:52:00,40.2,37.7,30.32,ENE,59,0.0,1.9,91,0.01,,,0.09,WX3IN1Plus v1.30,2013-01-15 05:52:00,
2013-01-15 00:57:00,40.3,37.7,30.31,ENE,59,0.0,0.0,91,0.02,,,0.10,WX3IN1Plus v1.30,2013-01-15 05:57:00,
2013-01-15 01:02:00,40.4,37.7,30.31,NE,50,0.0,2.4,91,0.02,,,0.10,WX3IN1Plus v1.30,2013-01-15 06:02:00,
2013-01-15 01:07:00,40.3,37.7,30.31,NE,50,0.0,0.0,91,0.02,,,0.10,WX3IN1Plus v1.30,2013-01-15 06:07:00,
2013-01-15 01:12:00,40.3,37.7,30.30,NE,50,0.0,0.0,91,0.03,,,0.11,WX3IN1Plus v1.30,2013-01-15 06:12:00,
2013-01-15 01:17:00,40.2,37.9,30.30,NE,50,0.0,0.0,92,0.04,,,0.12,WX3IN1Plus v1.30,2013-01-15 06:17:00,
2013-01-15 01:22:00,40.4,37.9,30.29,NE,49,0.0,1.0,92,0.05,,,0.13,WX3IN1Plus v1.30,2013-01-15 06:22:00,
2013-01-15 01:27:00,40.4,37.9,30.28,NE,49,0.0,0.0,92,0.06,,,0.14,WX3IN1Plus v1.30,2013-01-15 06:27:00,
2013-01-15 01:32:00,40.2,37.9,30.28,NE,49,0.0,0.0,92,0.06,,,0.14,WX3IN1Plus v1.30,2013-01-15 06:32:00,
2013-01-15 01:37:00,40.2,37.9,30.29,ESE,104,0.0,1.4,92,0.06,,,0.14,WX3IN1Plus v1.30,2013-01-15 06:37:00,
2013-01-15 01:42:00,40.2,37.9,30.29,ENE,57,0.0,2.7,92,0.05,,,0.14,WX3IN1Plus v1.30,2013-01-15 06:42:00,
2013-01-15 01:47:00,40.0,37.7,30.30,ENE,57,0.0,0.0,92,0.06,,,0.15,WX3IN1Plus v1.30,2013-01-15 06:47:00,
2013-01-15 01:52:00,40.1,37.9,30.30,NNE,19,0.0,2.8,92,0.06,,,0.15,WX3IN1Plus v1.30,2013-01-15 06:52:00,
2013-01-15 01:57:00,39.9,37.4,30.30,East,84,0.0,2.9,92,0.06,,,0.16,WX3IN1Plus v1.30,2013-01-15 06:57:00,
2013-01-15 02:02:00,39.9,37.4,30.29,ENE,64,2.4,2.6,92,0.06,,,0.16,WX3IN1Plus v1.30,2013-01-15 07:02:00,
2013-01-15 02:07:00,40.0,37.7,30.29,NE,45,0.0,3.1,92,0.07,,,0.17,WX3IN1Plus v1.30,2013-01-15 07:07:00,
2013-01-15 02:12:00,39.9,37.7,30.29,NE,45,0.0,0.0,93,0.06,,,0.17,WX3IN1Plus v1.30,2013-01-15 07:12:00,
2013-01-15 02:17:00,39.9,37.7,30.29,NE,45,0.0,0.0,93,0.06,,,0.18,WX3IN1Plus v1.30,2013-01-15 07:17:00,
2013-01-15 02:22:00,39.9,37.7,30.28,NE,45,0.0,0.0,93,0.05,,,0.18,WX3IN1Plus v1.30,2013-01-15 07:22:00,
2013-01-15 02:27:00,40.0,37.9,30.29,NE,45,0.0,0.0,93,0.04,,,0.18,WX3IN1Plus v1.30,2013-01-15 07:27:00,
2013-01-15 02:32:00,40.0,37.9,30.29,NE,45,0.0,0.0,93,0.05,,,0.19,WX3IN1Plus v1.30,2013-01-15 07:32:00,
2013-01-15 02:37:00,39.8,37.7,30.28,NE,45,0.0,0.0,93,0.05,,,0.19,WX3IN1Plus v1.30,2013-01-15 07:37:00,
2013-01-15 02:42:00,39.9,37.7,30.27,SSE,163,0.0,1.1,93,0.05,,,0.19,WX3IN1Plus v1.30,2013-01-15 07:42:00,
2013-01-15 02:47:00,39.9,37.7,30.28,SSE,163,0.0,0.0,93,0.05,,,0.20,WX3IN1Plus v1.30,2013-01-15 07:47:00,
2013-01-15 02:52:00,39.8,37.7,30.28,SSE,163,0.0,0.0,93,0.05,,,0.20,WX3IN1Plus v1.30,2013-01-15 07:52:00,
2013-01-15 02:57:00,39.9,37.7,30.29,North,1,3.1,3.1,93,0.04,,,0.20,WX3IN1Plus v1.30,2013-01-15 07:57:00,
2013-01-15 03:02:00,39.8,37.7,30.29,NE,56,0.6,3.7,93,0.04,,,0.20,WX3IN1Plus v1.30,2013-01-15 08:02:00,
2013-01-15 03:07:00,39.8,37.9,30.30,NNE,18,1.2,2.0,94,0.04,,,0.21,WX3IN1Plus v1.30,2013-01-15 08:07:00,
2013-01-15 03:12:00,39.8,37.9,30.31,NNE,19,0.6,4.2,94,0.04,,,0.21,WX3IN1Plus v1.30,2013-01-15 08:12:00,
2013-01-15 03:17:00,39.8,37.9,30.32,North,351,1.8,3.4,94,0.03,,,0.21,WX3IN1Plus v1.30,2013-01-15 08:17:00,
2013-01-15 03:22:00,39.9,37.9,30.31,NE,45,2.4,5.7,94,0.03,,,0.21,WX3IN1Plus v1.30,2013-01-15 08:22:00,
2013-01-15 03:27:00,39.9,37.9,30.30,NE,42,0.9,5.2,94,0.03,,,0.21,WX3IN1Plus v1.30,2013-01-15 08:27:00,
2013-01-15 03:32:00,40.0,38.1,30.31,NNW,337,1.6,2.6,94,0.02,,,0.21,WX3IN1Plus v1.30,2013-01-15 08:32:00,
2013-01-15 03:37:00,39.8,37.9,30.31,NE,53,2.0,4.2,94,0.02,,,0.21,WX3IN1Plus v1.30,2013-01-15 08:37:00,
2013-01-15 03:42:00,39.7,37.7,30.31,NNE,28,2.1,4.5,94,0.01,,,0.21,WX3IN1Plus v1.30,2013-01-15 08:42:00,
2013-01-15 03:47:00,39.8,37.9,30.30,NE,37,0.0,3.0,94,0.01,,,0.21,WX3IN1Plus v1.30,2013-01-15 08:47:00,
2013-01-15 03:52:00,39.9,37.9,30.31,NNE,14,0.0,3.9,94,0.01,,,0.21,WX3IN1Plus v1.30,2013-01-15 08:52:00,
2013-01-15 03:57:00,39.9,37.9,30.31,NE,54,0.0,5.4,94,0.01,,,0.21,WX3IN1Plus v1.30,2013-01-15 08:57:00,
2013-01-15 04:02:00,39.6,37.7,30.30,NNE,29,1.1,3.3,94,0.01,,,0.21,WX3IN1Plus v1.30,2013-01-15 09:02:00,
2013-01-15 04:07:00,39.8,37.9,30.31,NNE,14,2.1,2.6,94,0.00,,,0.21,WX3IN1Plus v1.30,2013-01-15 09:07:00,
2013-01-15 04:12:00,39.9,37.9,30.33,NE,39,2.6,7.2,94,0.00,,,0.21,WX3IN1Plus v1.30,2013-01-15 09:12:00,
2013-01-15 04:17:00,40.0,38.1,30.32,NNE,16,0.0,4.1,94,0.00,,,0.21,WX3IN1Plus v1.30,2013-01-15 09:17:00,
2013-01-15 04:22:00,39.9,37.9,30.32,NNE,30,1.4,8.0,94,0.00,,,0.21,WX3IN1Plus v1.30,2013-01-15 09:22:00,
2013-01-15 04:27:00,39.9,37.9,30.32,NNE,23,0.7,6.3,94,0.00,,,0.21,WX3IN1Plus v1.30,2013-01-15 09:27:00,
2013-01-15 04:32:00,39.8,37.9,30.30,NE,39,1.0,3.8,94,0.00,,,0.21,WX3IN1Plus v1.30,2013-01-15 09:32:00,
2013-01-15 04:37:00,39.7,37.7,30.30,NNE,14,2.2,7.8,94,0.00,,,0.21,WX3IN1Plus v1.30,2013-01-15 09:37:00,
2013-01-15 04:42:00,39.5,37.4,30.31,North,2,1.6,6.6,93,0.00,,,0.21,WX3IN1Plus v1.30,2013-01-15 09:42:00,
2013-01-15 04:47:00,39.4,37.4,30.31,NE,36,3.7,5.1,93,0.00,,,0.21,WX3IN1Plus v1.30,2013-01-15 09:47:00,
2013-01-15 04:52:00,39.7,37.4,30.32,NNE,15,2.2,5.0,93,0.00,,,0.21,WX3IN1Plus v1.30,2013-01-15 09:52:00,
2013-01-15 04:57:00,39.5,37.4,30.32,NNW,331,0.0,5.7,93,0.00,,,0.21,WX3IN1Plus v1.30,2013-01-15 09:57:00,
2013-01-15 05:02:00,39.6,37.4,30.31,NE,39,3.0,6.7,93,0.00,,,0.21,WX3IN1Plus v1.30,2013-01-15 10:02:00,
2013-01-15 05:07:00,39.7,37.4,30.30,ESE,122,0.8,4.6,93,0.00,,,0.21,WX3IN1Plus v1.30,2013-01-15 10:07:00,
2013-01-15 05:12:00,39.5,37.4,30.29,SE,133,0.0,2.7,93,0.00,,,0.21,WX3IN1Plus v1.30,2013-01-15 10:12:00,
2013-01-15 05:17:00,39.6,37.4,30.31,North,11,1.8,3.2,93,0.00,,,0.21,WX3IN1Plus v1.30,2013-01-15 10:17:00,
2013-01-15 05:22:00,39.6,37.4,30.30,North,4,0.0,3.3,93,0.00,,,0.21,WX3IN1Plus v1.30,2013-01-15 10:22:00,
2013-01-15 05:27:00,39.7,37.4,30.30,NNE,19,1.8,4.6,93,0.00,,,0.21,WX3IN1Plus v1.30,2013-01-15 10:27:00,
2013-01-15 05:32:00,39.6,37.4,30.29,SSW,192,1.4,3.1,93,0.00,,,0.21,WX3IN1Plus v1.30,2013-01-15 10:32:00,
2013-01-15 05:37:00,39.7,37.4,30.29,NE,35,0.0,2.9,93,0.00,,,0.21,WX3IN1Plus v1.30,2013-01-15 10:37:00,
2013-01-15 05:42:00,39.7,37.4,30.29,NNE,26,1.8,3.6,93,0.00,,,0.21,WX3IN1Plus v1.30,2013-01-15 10:42:00,
2013-01-15 05:47:00,39.9,37.7,30.30,NE,43,3.6,4.3,93,0.00,,,0.21,WX3IN1Plus v1.30,2013-01-15 10:47:00,
2013-01-15 05:52:00,39.7,37.4,30.30,NNE,25,0.8,3.7,93,0.00,,,0.21,WX3IN1Plus v1.30,2013-01-15 10:52:00,
2013-01-15 05:57:00,39.6,37.4,30.30,NE,43,0.0,5.2,93,0.00,,,0.21,WX3IN1Plus v1.30,2013-01-15 10:57:00,
2013-01-15 06:02:00,39.5,37.4,30.29,NE,39,0.0,2.7,93,0.00,,,0.21,WX3IN1Plus v1.30,2013-01-15 11:02:00,
2013-01-15 06:07:00,39.6,37.4,30.30,NE,46,2.6,3.7,93,0.00,,,0.21,WX3IN1Plus v1.30,2013-01-15 11:07:00,
2013-01-15 06:12:00,39.8,37.7,30.29,NE,43,2.2,4.2,93,0.00,,,0.21,WX3IN1Plus v1.30,2013-01-15 11:12:00,
2013-01-15 06:17:00,39.7,37.4,30.30,North,8,0.9,5.2,93,0.00,,,0.21,WX3IN1Plus v1.30,2013-01-15 11:17:00,
2013-01-15 06:22:00,39.8,37.7,30.31,NE,40,1.4,4.9,93,0.00,,,0.21,WX3IN1Plus v1.30,2013-01-15 11:22:00,
2013-01-15 06:27:00,39.8,37.7,30.31,NNE,16,1.8,4.5,93,0.00,,,0.21,WX3IN1Plus v1.30,2013-01-15 11:27:00,
2013-01-15 06:32:00,39.6,37.4,30.32,ESE,112,1.6,5.6,93,0.00,,,0.21,WX3IN1Plus v1.30,2013-01-15 11:32:00,
2013-01-15 06:38:00,39.7,37.4,30.31,NE,56,4.2,6.2,93,0.00,,,0.21,WX3IN1Plus v1.30,2013-01-15 11:38:00,
2013-01-15 06:43:00,39.6,37.4,30.32,NE,42,2.1,5.7,93,0.01,,,0.22,WX3IN1Plus v1.30,2013-01-15 11:43:00,
2013-01-15 06:48:00,39.8,37.7,30.32,NNE,28,2.7,5.4,93,0.01,,,0.22,WX3IN1Plus v1.30,2013-01-15 11:48:00,
2013-01-15 06:53:00,39.8,37.7,30.33,NNE,23,0.6,5.2,93,0.01,,,0.22,WX3IN1Plus v1.30,2013-01-15 11:53:00,
2013-01-15 06:58:00,39.8,37.7,30.33,NNE,12,1.1,4.4,93,0.01,,,0.22,WX3IN1Plus v1.30,2013-01-15 11:58:00,
2013-01-15 07:03:00,39.8,37.9,30.33,East,80,0.8,5.6,94,0.02,,,0.23,WX3IN1Plus v1.30,2013-01-15 12:03:00,
2013-01-15 07:08:00,39.6,37.7,30.33,NE,54,5.3,5.3,94,0.02,,,0.23,WX3IN1Plus v1.30,2013-01-15 12:08:00,
2013-01-15 07:13:00,39.6,37.7,30.33,ENE,57,2.8,5.6,94,0.03,,,0.24,WX3IN1Plus v1.30,2013-01-15 12:13:00,
2013-01-15 07:18:00,39.5,37.7,30.33,NE,50,1.5,6.2,94,0.03,,,0.24,WX3IN1Plus v1.30,2013-01-15 12:18:00,
2013-01-15 07:23:00,39.5,37.7,30.33,ENE,63,4.4,5.7,94,0.03,,,0.24,WX3IN1Plus v1.30,2013-01-15 12:23:00,
2013-01-15 07:28:00,39.5,37.7,30.34,NE,39,0.8,5.2,94,0.04,,,0.25,WX3IN1Plus v1.30,2013-01-15 12:28:00,
2013-01-15 07:33:00,39.5,37.7,30.33,ENE,75,2.5,5.4,94,0.04,,,0.25,WX3IN1Plus v1.30,2013-01-15 12:33:00,
2013-01-15 07:38:00,39.4,37.7,30.33,East,92,4.2,8.7,94,0.04,,,0.25,WX3IN1Plus v1.30,2013-01-15 12:38:00,
2013-01-15 07:43:00,39.4,37.7,30.33,ENE,77,6.0,7.7,94,0.03,,,0.25,WX3IN1Plus v1.30,2013-01-15 12:43:00,
2013-01-15 07:48:00,39.5,36.8,30.35,NNE,16,2.1,7.1,91,0.04,,,0.26,WX3IN1Plus v1.30,2013-01-15 12:48:00,
2013-01-15 07:53:00,39.4,36.8,30.36,NE,40,1.5,6.8,91,0.04,,,0.26,WX3IN1Plus v1.30,2013-01-15 12:53:00,
2013-01-15 07:58:00,39.5,36.8,30.36,NE,40,2.4,5.0,91,0.04,,,0.26,WX3IN1Plus v1.30,2013-01-15 12:58:00,
2013-01-15 08:03:00,39.6,37.9,30.36,NE,36,1.4,5.4,95,0.03,,,0.26,WX3IN1Plus v1.30,2013-01-15 13:03:00,
2013-01-15 08:08:00,39.4,37.9,30.36,NE,56,3.5,4.3,95,0.03,,,0.26,WX3IN1Plus v1.30,2013-01-15 13:08:00,
2013-01-15 08:13:00,39.5,37.9,30.36,NNE,30,3.1,4.9,95,0.02,,,0.26,WX3IN1Plus v1.30,2013-01-15 13:13:00,
2013-01-15 08:18:00,39.5,37.9,30.37,North,9,1.4,3.6,95,0.03,,,0.27,WX3IN1Plus v1.30,2013-01-15 13:18:00,
2013-01-15 08:23:00,39.7,37.9,30.38,NE,56,1.6,5.1,95,0.03,,,0.27,WX3IN1Plus v1.30,2013-01-15 13:23:00,
2013-01-15 08:28:00,39.7,37.9,30.37,SE,136,2.6,5.9,95,0.02,,,0.27,WX3IN1Plus v1.30,2013-01-15 13:28:00,
2013-01-15 08:33:00,39.5,37.9,30.36,NE,47,2.9,6.4,95,0.02,,,0.27,WX3IN1Plus v1.30,2013-01-15 13:33:00,
2013-01-15 08:38:00,39.4,37.9,30.38,ENE,66,2.7,4.1,95,0.02,,,0.27,WX3IN1Plus v1.30,2013-01-15 13:38:00,
2013-01-15 08:43:00,39.3,37.7,30.38,NE,47,3.5,6.4,95,0.02,,,0.28,WX3IN1Plus v1.30,2013-01-15 13:43:00,
2013-01-15 08:48:00,39.5,37.9,30.38,NE,50,2.4,6.7,95,0.02,,,0.28,WX3IN1Plus v1.30,2013-01-15 13:48:00,
2013-01-15 08:53:00,39.3,37.7,30.38,NNE,30,3.4,6.7,95,0.02,,,0.28,WX3IN1Plus v1.30,2013-01-15 13:53:00,
2013-01-15 08:58:00,39.5,37.9,30.39,NE,52,2.1,4.5,95,0.02,,,0.28,WX3IN1Plus v1.30,2013-01-15 13:58:00,
2013-01-15 09:03:00,39.5,37.9,30.39,NE,53,4.5,4.5,95,0.02,,,0.28,WX3IN1Plus v1.30,2013-01-15 14:03:00,
2013-01-15 09:08:00,39.5,37.9,30.38,NNE,28,2.7,8.2,95,0.03,,,0.29,WX3IN1Plus v1.30,2013-01-15 14:08:00,
2013-01-15 09:13:00,39.5,37.9,30.38,NE,37,3.0,5.8,95,0.03,,,0.29,WX3IN1Plus v1.30,2013-01-15 14:13:00,
2013-01-15 09:18:00,39.5,37.9,30.38,ENE,63,1.8,8.3,95,0.02,,,0.29,WX3IN1Plus v1.30,2013-01-15 14:18:00,
2013-01-15 09:23:00,39.7,37.9,30.37,NE,37,2.9,4.9,95,0.02,,,0.29,WX3IN1Plus v1.30,2013-01-15 14:23:00,
2013-01-15 09:28:00,39.6,37.9,30.38,NE,40,3.1,7.4,95,0.02,,,0.29,WX3IN1Plus v1.30,2013-01-15 14:28:00,
2013-01-15 09:33:00,39.6,37.9,30.38,North,2,4.1,6.7,95,0.03,,,0.30,WX3IN1Plus v1.30,2013-01-15 14:33:00,
2013-01-15 09:38:00,39.6,37.9,30.38,NNE,23,4.5,7.1,95,0.03,,,0.30,WX3IN1Plus v1.30,2013-01-15 14:38:00,
2013-01-15 09:43:00,39.6,37.9,30.38,NE,52,2.1,6.4,95,0.02,,,0.30,WX3IN1Plus v1.30,2013-01-15 14:43:00,
2013-01-15 09:48:00,39.6,37.9,30.37,NNE,30,3.6,6.7,95,0.02,,,0.30,WX3IN1Plus v1.30,2013-01-15 14:48:00,
2013-01-15 09:53:00,39.6,37.9,30.38,NNE,19,3.0,6.1,95,0.02,,,0.30,WX3IN1Plus v1.30,2013-01-15 14:53:00,
2013-01-15 09:58:00,39.6,37.9,30.39,NE,45,4.6,8.2,95,0.02,,,0.30,WX3IN1Plus v1.30,2013-01-15 14:58:00,
2013-01-15 10:03:00,39.6,37.9,30.39,North,2,2.6,8.0,95,0.03,,,0.31,WX3IN1Plus v1.30,2013-01-15 15:03:00,
2013-01-15 10:08:00,39.6,37.9,30.38,NE,47,3.1,9.6,95,0.02,,,0.31,WX3IN1Plus v1.30,2013-01-15 15:08:00,
2013-01-15 10:13:00,39.5,37.9,30.38,East,91,3.0,7.7,95,0.02,,,0.31,WX3IN1Plus v1.30,2013-01-15 15:13:00,
2013-01-15 10:18:00,39.5,37.9,30.39,ESE,115,5.7,7.5,95,0.02,,,0.31,WX3IN1Plus v1.30,2013-01-15 15:18:00,
2013-01-15 10:23:00,39.6,37.9,30.39,NE,35,2.4,7.1,95,0.02,,,0.31,WX3IN1Plus v1.30,2013-01-15 15:23:00,
2013-01-15 10:28:00,39.6,37.9,30.39,ENE,60,1.8,6.0,95,0.01,,,0.31,WX3IN1Plus v1.30,2013-01-15 15:28:00,
2013-01-15 10:33:00,39.8,38.1,30.38,ENE,64,2.1,7.5,95,0.01,,,0.31,WX3IN1Plus v1.30,2013-01-15 15:33:00,
2013-01-15 10:38:00,40.0,38.4,30.39,North,0,3.5,6.8,95,0.02,,,0.32,WX3IN1Plus v1.30,2013-01-15 15:38:00,
2013-01-15 10:43:00,40.1,38.6,30.39,NE,46,1.5,5.8,95,0.02,,,0.32,WX3IN1Plus v1.30,2013-01-15 15:43:00,
2013-01-15 10:48:00,40.1,38.6,30.38,NE,35,1.1,5.5,95,0.02,,,0.32,WX3IN1Plus v1.30,2013-01-15 15:48:00,
2013-01-15 10:53:00,40.0,38.4,30.38,East,90,4.9,7.8,95,0.03,,,0.33,WX3IN1Plus v1.30,2013-01-15 15:53:00,
2013-01-15 10:58:00,40.0,38.4,30.38,NE,45,4.9,7.0,95,0.03,,,0.33,WX3IN1Plus v1.30,2013-01-15 15:58:00,
2013-01-15 11:03:00,40.0,38.4,30.38,ENE,61,1.8,7.0,95,0.02,,,0.33,WX3IN1Plus v1.30,2013-01-15 16:03:00,
2013-01-15 11:08:00,40.1,38.6,30.39,NE,40,5.4,7.3,95,0.02,,,0.33,WX3IN1Plus v1.30,2013-01-15 16:08:00,
2013-01-15 11:13:00,40.1,38.6,30.38,ENE,66,0.3,9.0,95,0.02,,,0.33,WX3IN1Plus v1.30,2013-01-15 16:13:00,
2013-01-15 11:18:00,40.1,38.6,30.37,ENE,57,1.1,4.5,95,0.02,,,0.33,WX3IN1Plus v1.30,2013-01-15 16:18:00,
2013-01-15 11:23:00,40.0,38.4,30.37,NE,46,3.4,7.7,95,0.03,,,0.34,WX3IN1Plus v1.30,2013-01-15 16:23:00,
2013-01-15 11:28:00,40.2,38.6,30.37,NNE,12,4.6,5.2,95,0.03,,,0.34,WX3IN1Plus v1.30,2013-01-15 16:28:00,
2013-01-15 11:33:00,40.1,38.6,30.36,ENE,57,1.7,6.8,95,0.03,,,0.34,WX3IN1Plus v1.30,2013-01-15 16:33:00,
2013-01-15 11:38:00,40.1,38.6,30.36,ESE,106,2.7,6.5,95,0.02,,,0.34,WX3IN1Plus v1.30,2013-01-15 16:38:00,
2013-01-15 11:43:00,40.0,38.4,30.37,NE,46,2.7,5.5,95,0.02,,,0.34,WX3IN1Plus v1.30,2013-01-15 16:43:00,
2013-01-15 11:48:00,40.1,38.4,30.35,SSE,149,6.5,7.7,94,0.02,,,0.34,WX3IN1Plus v1.30,2013-01-15 16:48:00,
2013-01-15 11:53:00,39.8,37.9,30.36,ESE,105,3.7,7.0,94,0.01,,,0.34,WX3IN1Plus v1.30,2013-01-15 16:53:00,
2013-01-15 11:58:00,39.4,37.7,30.34,East,99,3.7,8.4,94,0.01,,,0.34,WX3IN1Plus v1.30,2013-01-15 16:58:00,
2013-01-15 12:03:00,39.3,37.4,30.36,East,95,1.6,8.5,94,0.01,,,0.34,WX3IN1Plus v1.30,2013-01-15 17:03:00,
2013-01-15 12:08:00,39.1,37.2,30.37,East,85,1.7,5.0,94,0.01,,,0.34,WX3IN1Plus v1.30,2013-01-15 17:08:00,
2013-01-15 12:13:00,38.7,36.8,30.37,ENE,70,0.9,3.8,94,0.01,,,0.34,WX3IN1Plus v1.30,2013-01-15 17:13:00,
2013-01-15 12:18:00,38.8,36.1,30.36,ENE,63,0.0,4.2,91,0.01,,,0.34,WX3IN1Plus v1.30,2013-01-15 17:18:00,
2013-01-15 12:23:00,38.6,36.6,30.36,East,80,2.9,5.7,94,0.00,,,0.34,WX3IN1Plus v1.30,2013-01-15 17:23:00,
2013-01-15 12:28:00,38.5,35.4,30.35,SE,137,3.6,5.4,90,0.00,,,0.34,WX3IN1Plus v1.30,2013-01-15 17:28:00,
2013-01-15 12:33:00,38.4,35.9,30.34,ENE,71,0.0,4.5,91,0.00,,,0.34,WX3IN1Plus v1.30,2013-01-15 17:33:00,
2013-01-15 12:38:00,38.5,35.9,30.34,NE,35,0.0,4.2,91,0.00,,,0.34,WX3IN1Plus v1.30,2013-01-15 17:38:00,
2013-01-15 12:43:00,38.4,35.9,30.36,ENE,74,0.8,3.6,91,0.00,,,0.34,WX3IN1Plus v1.30,2013-01-15 17:43:00,
2013-01-15 12:48:00,38.5,35.9,30.34,East,81,0.0,2.7,91,0.00,,,0.34,WX3IN1Plus v1.30,2013-01-15 17:48:00,
2013-01-15 12:53:00,38.5,35.9,30.33,SSE,160,1.2,2.9,91,0.00,,,0.34,WX3IN1Plus v1.30,2013-01-15 17:53:00,
2013-01-15 12:58:00,38.4,35.9,30.33,SSE,151,0.8,3.2,91,0.00,,,0.34,WX3IN1Plus v1.30,2013-01-15 17:58:00,
2013-01-15 13:03:00,38.8,36.5,30.34,NNE,28,0.0,3.9,92,0.00,,,0.34,WX3IN1Plus v1.30,2013-01-15 18:03:00,
2013-01-15 13:08:00,38.8,37.2,30.36,NNE,33,0.0,2.4,95,0.00,,,0.34,WX3IN1Plus v1.30,2013-01-15 18:08:00,
2013-01-15 13:13:00,38.5,36.8,30.35,NNE,33,0.0,0.0,95,0.00,,,0.34,WX3IN1Plus v1.30,2013-01-15 18:13:00,
2013-01-15 13:18:00,38.6,36.8,30.33,SSE,147,1.3,3.6,95,0.00,,,0.34,WX3IN1Plus v1.30,2013-01-15 18:18:00,
2013-01-15 13:23:00,38.8,37.2,30.35,NNE,21,0.0,4.3,95,0.00,,,0.34,WX3IN1Plus v1.30,2013-01-15 18:23:00,
2013-01-15 13:28:00,38.8,37.2,30.34,ENE,63,0.0,2.4,95,0.00,,,0.34,WX3IN1Plus v1.30,2013-01-15 18:28:00,
2013-01-15 13:33:00,38.8,37.2,30.34,ENE,78,0.0,3.7,95,0.00,,,0.34,WX3IN1Plus v1.30,2013-01-15 18:33:00,
2013-01-15 13:38:00,38.6,36.8,30.34,SE,135,0.0,2.0,95,0.00,,,0.34,WX3IN1Plus v1.30,2013-01-15 18:38:00,
2013-01-15 13:43:00,38.8,37.2,30.33,SSE,151,1.4,3.4,95,0.00,,,0.34,WX3IN1Plus v1.30,2013-01-15 18:43:00,
2013-01-15 13:48:00,38.7,37.2,30.33,ESE,109,0.9,2.7,95,0.00,,,0.34,WX3IN1Plus v1.30,2013-01-15 18:48:00,
2013-01-15 13:53:00,38.6,36.6,30.31,ENE,61,0.0,1.9,94,0.00,,,0.34,WX3IN1Plus v1.30,2013-01-15 18:53:00,
2013-01-15 13:58:00,38.9,37.4,30.31,ESE,104,0.0,2.5,95,0.00,,,0.34,WX3IN1Plus v1.30,2013-01-15 18:58:00,
2013-01-15 14:03:00,39.1,37.4,30.30,ESE,112,0.6,3.9,95,0.00,,,0.34,WX3IN1Plus v1.30,2013-01-15 19:03:00,
2013-01-15 14:08:00,39.0,37.4,30.32,East,84,0.4,2.5,95,0.00,,,0.34,WX3IN1Plus v1.30,2013-01-15 19:08:00,
2013-01-15 14:13:00,39.0,37.4,30.33,ENE,64,1.9,2.4,95,0.00,,,0.34,WX3IN1Plus v1.30,2013-01-15 19:13:00,
2013-01-15 14:18:00,39.0,37.4,30.32,ENE,70,4.1,4.9,95,0.00,,,0.34,WX3IN1Plus v1.30,2013-01-15 19:18:00,
2013-01-15 14:23:00,39.0,37.4,30.32,SSE,150,0.0,4.1,95,0.01,,,0.35,WX3IN1Plus v1.30,2013-01-15 19:23:00,
2013-01-15 14:28:00,39.1,37.4,30.31,SE,144,1.6,2.9,95,0.01,,,0.35,WX3IN1Plus v1.30,2013-01-15 19:28:00,
2013-01-15 14:33:00,39.1,37.4,30.30,ESE,113,0.0,4.0,95,0.01,,,0.35,WX3IN1Plus v1.30,2013-01-15 19:33:00,
2013-01-15 14:38:00,39.2,37.7,30.29,ENE,75,2.7,6.0,95,0.01,,,0.35,WX3IN1Plus v1.30,2013-01-15 19:38:00,
2013-01-15 14:43:00,38.9,37.4,30.31,NNE,30,1.8,4.1,95,0.01,,,0.35,WX3IN1Plus v1.30,2013-01-15 19:43:00,
2013-01-15 14:48:00,38.8,36.8,30.31,NE,50,0.0,2.4,94,0.01,,,0.35,WX3IN1Plus v1.30,2013-01-15 19:48:00,
2013-01-15 14:53:00,38.8,36.8,30.30,East,90,0.0,4.5,94,0.01,,,0.35,WX3IN1Plus v1.30,2013-01-15 19:53:00,
2013-01-15 14:58:00,38.8,36.8,30.30,ESE,105,0.0,3.8,94,0.01,,,0.35,WX3IN1Plus v1.30,2013-01-15 19:58:00,
2013-01-15 15:03:00,38.8,36.8,30.30,NE,56,0.4,0.9,94,0.01,,,0.35,WX3IN1Plus v1.30,2013-01-15 20:03:00,
2013-01-15 15:08:00,38.7,36.8,30.30,ENE,59,0.0,2.5,94,0.01,,,0.35,WX3IN1Plus v1.30,2013-01-15 20:08:00,
2013-01-15 15:13:00,38.6,36.6,30.31,ENE,66,2.7,2.9,94,0.01,,,0.35,WX3IN1Plus v1.30,2013-01-15 20:13:00,
2013-01-15 15:18:00,38.6,36.6,30.31,East,84,1.1,3.3,94,0.01,,,0.35,WX3IN1Plus v1.30,2013-01-15 20:18:00,
2013-01-15 15:23:00,38.5,36.6,30.31,East,92,1.8,3.7,94,0.00,,,0.35,WX3IN1Plus v1.30,2013-01-15 20:23:00,
2013-01-15 15:28:00,38.3,36.6,30.31,ESE,112,0.0,4.7,94,0.00,,,0.35,WX3IN1Plus v1.30,2013-01-15 20:28:00,
2013-01-15 15:33:00,38.5,36.6,30.31,East,92,0.8,2.7,94,0.00,,,0.35,WX3IN1Plus v1.30,2013-01-15 20:33:00,
2013-01-15 15:38:00,38.5,35.9,30.31,NE,49,1.4,3.4,91,0.00,,,0.35,WX3IN1Plus v1.30,2013-01-15 20:38:00,
2013-01-15 15:43:00,38.4,36.6,30.31,NE,37,0.0,2.7,94,0.00,,,0.35,WX3IN1Plus v1.30,2013-01-15 20:43:00,
2013-01-15 15:48:00,38.4,36.6,30.31,South,170,0.0,2.4,94,0.00,,,0.35,WX3IN1Plus v1.30,2013-01-15 20:48:00,
2013-01-15 15:53:00,38.5,36.5,30.32,NE,46,1.4,3.2,93,0.00,,,0.35,WX3IN1Plus v1.30,2013-01-15 20:53:00,
2013-01-15 15:58:00,38.4,36.5,30.32,ESE,106,0.0,1.8,93,0.00,,,0.35,WX3IN1Plus v1.30,2013-01-15 20:58:00,
2013-01-15 16:03:00,38.5,36.5,30.33,ENE,61,1.7,3.0,93,0.00,,,0.35,WX3IN1Plus v1.30,2013-01-15 21:03:00,
2013-01-15 16:08:00,38.4,36.5,30.34,NE,40,1.3,3.7,93,0.00,,,0.35,WX3IN1Plus v1.30,2013-01-15 21:08:00,
2013-01-15 16:13:00,38.3,36.5,30.34,East,82,1.4,2.7,93,0.00,,,0.35,WX3IN1Plus v1.30,2013-01-15 21:13:00,
2013-01-15 16:18:00,38.4,36.5,30.34,NNE,15,0.0,1.4,93,0.00,,,0.35,WX3IN1Plus v1.30,2013-01-15 21:18:00,
2013-01-15 16:23:00,38.5,36.5,30.33,NNE,15,0.0,0.0,93,0.00,,,0.35,WX3IN1Plus v1.30,2013-01-15 21:23:00,
2013-01-15 16:28:00,38.5,36.5,30.33,NNE,15,0.0,0.0,93,0.00,,,0.35,WX3IN1Plus v1.30,2013-01-15 21:28:00,
2013-01-15 16:33:00,38.5,36.5,30.32,NE,50,0.0,0.4,93,0.00,,,0.35,WX3IN1Plus v1.30,2013-01-15 21:33:00,
2013-01-15 16:38:00,38.5,36.5,30.32,NE,50,0.0,0.0,93,0.00,,,0.35,WX3IN1Plus v1.30,2013-01-15 21:38:00,
2013-01-15 16:43:00,38.5,36.5,30.33,ENE,75,0.5,2.8,93,0.00,,,0.35,WX3IN1Plus v1.30,2013-01-15 21:43:00,
2013-01-15 16:48:00,38.4,36.5,30.32,ENE,75,0.0,0.7,93,0.00,,,0.35,WX3IN1Plus v1.30,2013-01-15 21:48:00,
2013-01-15 16:53:00,38.6,36.5,30.32,NNE,33,0.0,0.3,93,0.00,,,0.35,WX3IN1Plus v1.30,2013-01-15 21:53:00,
2013-01-15 16:58:00,38.6,36.5,30.31,ESE,111,0.0,2.3,93,0.00,,,0.35,WX3IN1Plus v1.30,2013-01-15 21:58:00,
2013-01-15 17:03:00,38.6,36.5,30.31,ESE,111,0.0,0.0,93,0.00,,,0.35,WX3IN1Plus v1.30,2013-01-15 22:03:00,
2013-01-15 17:08:00,38.5,36.5,30.31,NNE,26,2.2,3.1,93,0.00,,,0.35,WX3IN1Plus v1.30,2013-01-15 22:08:00,
2013-01-15 17:13:00,38.6,36.5,30.31,East,88,0.0,3.5,93,0.00,,,0.35,WX3IN1Plus v1.30,2013-01-15 22:13:00,
2013-01-15 17:18:00,38.5,36.5,30.30,ESE,102,2.1,2.4,93,0.00,,,0.35,WX3IN1Plus v1.30,2013-01-15 22:18:00,
2013-01-15 17:23:00,38.4,36.5,30.29,South,174,2.6,3.6,93,0.00,,,0.35,WX3IN1Plus v1.30,2013-01-15 22:23:00,
2013-01-15 17:28:00,38.5,36.5,30.28,South,184,1.6,3.4,93,0.00,,,0.35,WX3IN1Plus v1.30,2013-01-15 22:28:00,
2013-01-15 17:33:00,38.5,36.5,30.26,South,171,0.9,4.3,93,0.00,,,0.35,WX3IN1Plus v1.30,2013-01-15 22:33:00,
2013-01-15 17:38:00,38.5,36.5,30.28,NNE,14,0.0,3.0,93,0.00,,,0.35,WX3IN1Plus v1.30,2013-01-15 22:38:00,
2013-01-15 17:43:00,38.5,36.5,30.28,ESE,111,0.0,2.2,93,0.00,,,0.35,WX3IN1Plus v1.30,2013-01-15 22:43:00,
2013-01-15 17:48:00,38.4,35.2,30.28,ESE,111,0.0,0.0,89,0.00,,,0.35,WX3IN1Plus v1.30,2013-01-15 22:48:00,
2013-01-15 17:53:00,38.4,36.1,30.28,ESE,111,0.0,0.0,92,0.00,,,0.35,WX3IN1Plus v1.30,2013-01-15 22:53:00,
2013-01-15 17:58:00,38.4,36.1,30.29,NNE,26,0.6,3.3,92,0.00,,,0.35,WX3IN1Plus v1.30,2013-01-15 22:58:00,
2013-01-15 18:03:00,38.4,36.1,30.30,NE,39,0.0,1.8,92,0.00,,,0.35,WX3IN1Plus v1.30,2013-01-15 23:03:00,
2013-01-15 18:08:00,38.3,36.1,30.30,NE,39,0.0,0.0,92,0.00,,,0.35,WX3IN1Plus v1.30,2013-01-15 23:08:00,
2013-01-15 18:13:00,38.4,36.1,30.30,East,92,0.0,1.8,92,0.00,,,0.35,WX3IN1Plus v1.30,2013-01-15 23:13:00,
2013-01-15 18:18:00,38.3,36.1,30.30,East,92,0.0,0.0,92,0.00,,,0.35,WX3IN1Plus v1.30,2013-01-15 23:18:00,
2013-01-15 18:23:00,38.4,35.9,30.31,East,92,0.0,0.0,91,0.00,,,0.35,WX3IN1Plus v1.30,2013-01-15 23:23:00,
2013-01-15 18:28:00,38.3,35.9,30.30,East,92,0.0,0.0,91,0.00,,,0.35,WX3IN1Plus v1.30,2013-01-15 23:28:00,
2013-01-15 18:33:00,38.3,35.9,30.31,East,92,0.0,0.0,91,0.00,,,0.35,WX3IN1Plus v1.30,2013-01-15 23:33:00,
2013-01-15 18:38:00,38.5,35.9,30.31,East,92,0.0,0.0,91,0.00,,,0.35,WX3IN1Plus v1.30,2013-01-15 23:38:00,
2013-01-15 18:43:00,38.4,35.9,30.32,East,92,0.0,0.0,91,0.00,,,0.35,WX3IN1Plus v1.30,2013-01-15 23:43:00,
2013-01-15 18:48:00,38.5,35.9,30.31,East,92,0.0,0.0,91,0.00,,,0.35,WX3IN1Plus v1.30,2013-01-15 23:48:00,
2013-01-15 18:53:00,38.4,35.9,30.31,East,90,0.6,1.5,91,0.00,,,0.35,WX3IN1Plus v1.30,2013-01-15 23:53:00,
2013-01-15 18:58:00,38.5,35.9,30.30,ENE,60,0.0,1.8,91,0.00,,,0.35,WX3IN1Plus v1.30,2013-01-15 23:58:00,
2013-01-15 19:03:00,38.5,35.9,30.29,ENE,60,0.0,0.0,91,0.00,,,0.35,WX3IN1Plus v1.30,2013-01-16 00:03:00,
2013-01-15 19:08:00,38.5,35.2,30.29,ENE,60,0.0,0.0,89,0.00,,,0.35,WX3IN1Plus v1.30,2013-01-16 00:08:00,
2013-01-15 19:13:00,38.5,36.1,30.29,ENE,63,1.1,2.0,92,0.01,,,0.36,WX3IN1Plus v1.30,2013-01-16 00:13:00,
2013-01-15 19:18:00,38.5,36.1,30.29,NNE,28,2.9,3.3,92,0.01,,,0.36,WX3IN1Plus v1.30,2013-01-16 00:18:00,
2013-01-15 19:23:00,38.5,36.1,30.30,East,84,1.4,3.1,92,0.01,,,0.36,WX3IN1Plus v1.30,2013-01-16 00:23:00,
2013-01-15 19:28:00,38.4,36.1,30.31,NE,37,2.2,3.6,92,0.01,,,0.36,WX3IN1Plus v1.30,2013-01-16 00:28:00,
2013-01-15 19:33:00,38.2,35.9,30.31,NNE,14,0.0,2.2,92,0.02,,,0.37,WX3IN1Plus v1.30,2013-01-16 00:33:00,
2013-01-15 19:38:00,38.1,35.9,30.31,NNE,14,0.0,0.0,93,0.02,,,0.37,WX3IN1Plus v1.30,2013-01-16 00:38:00,
2013-01-15 19:43:00,38.1,35.6,30.31,NE,54,1.9,5.4,92,0.03,,,0.38,WX3IN1Plus v1.30,2013-01-16 00:43:00,
2013-01-15 19:48:00,38.2,35.9,30.30,NE,53,1.4,3.8,92,0.05,,,0.40,WX3IN1Plus v1.30,2013-01-16 00:48:00,
2013-01-15 19:53:00,38.0,35.6,30.30,ENE,74,1.2,2.7,92,0.06,,,0.41,WX3IN1Plus v1.30,2013-01-16 00:53:00,
2013-01-15 19:58:00,37.8,35.4,30.30,NNE,26,0.8,3.6,92,0.06,,,0.41,WX3IN1Plus v1.30,2013-01-16 00:58:00,
2013-01-15 20:03:00,37.9,35.4,30.29,ENE,57,0.8,2.0,92,0.07,,,0.42,WX3IN1Plus v1.30,2013-01-16 01:03:00,
2013-01-15 20:08:00,37.8,35.4,30.29,NE,53,1.3,5.5,92,0.08,,,0.43,WX3IN1Plus v1.30,2013-01-16 01:08:00,
2013-01-15 20:13:00,37.7,35.4,30.29,ENE,68,1.6,4.4,92,0.08,,,0.44,WX3IN1Plus v1.30,2013-01-16 01:13:00,
2013-01-15 20:18:00,37.7,35.4,30.28,NE,40,1.8,3.4,92,0.09,,,0.45,WX3IN1Plus v1.30,2013-01-16 01:18:00,
2013-01-15 20:23:00,37.5,35.2,30.28,NNE,30,3.2,4.7,92,0.09,,,0.45,WX3IN1Plus v1.30,2013-01-16 01:23:00,
2013-01-15 20:28:00,37.2,34.8,30.28,SE,125,1.7,6.2,92,0.10,,,0.46,WX3IN1Plus v1.30,2013-01-16 01:28:00,
2013-01-15 20:33:00,37.2,35.2,30.28,ENE,61,1.9,5.9,93,0.10,,,0.47,WX3IN1Plus v1.30,2013-01-16 01:33:00,
2013-01-15 20:38:00,36.9,34.8,30.28,ENE,61,4.5,6.2,93,0.09,,,0.47,WX3IN1Plus v1.30,2013-01-16 01:38:00,
2013-01-15 20:43:00,37.0,34.8,30.28,NE,43,4.7,5.4,93,0.09,,,0.48,WX3IN1Plus v1.30,2013-01-16 01:43:00,
2013-01-15 20:48:00,36.7,34.7,30.28,NE,40,2.0,5.9,93,0.08,,,0.48,WX3IN1Plus v1.30,2013-01-16 01:48:00,
2013-01-15 20:53:00,36.8,34.7,30.29,NE,37,2.2,5.7,93,0.08,,,0.49,WX3IN1Plus v1.30,2013-01-16 01:53:00,
2013-01-15 20:59:00,36.7,34.7,30.29,East,82,3.4,5.5,93,0.09,,,0.50,WX3IN1Plus v1.30,2013-01-16 01:59:00,
2013-01-15 21:04:00,36.6,34.3,30.29,ESE,102,2.7,5.2,93,0.09,,,0.51,WX3IN1Plus v1.30,2013-01-16 02:04:00,
2013-01-15 21:09:00,36.6,34.3,30.28,ENE,66,7.7,8.7,93,0.09,,,0.52,WX3IN1Plus v1.30,2013-01-16 02:09:00,
2013-01-15 21:14:00,36.5,34.3,30.28,NE,39,2.4,7.7,93,0.09,,,0.53,WX3IN1Plus v1.30,2013-01-16 02:14:00,
2013-01-15 21:19:00,36.4,34.3,30.27,East,82,2.6,5.9,93,0.09,,,0.54,WX3IN1Plus v1.30,2013-01-16 02:19:00,
2013-01-15 21:24:00,36.2,34.1,30.28,NE,45,3.4,6.3,93,0.10,,,0.55,WX3IN1Plus v1.30,2013-01-16 02:24:00,
2013-01-15 21:29:00,36.2,34.3,30.27,ENE,74,4.4,5.2,94,0.10,,,0.56,WX3IN1Plus v1.30,2013-01-16 02:29:00,
2013-01-15 21:34:00,36.2,34.3,30.26,ENE,74,4.3,8.7,94,0.11,,,0.58,WX3IN1Plus v1.30,2013-01-16 02:34:00,
2013-01-15 21:39:00,36.1,34.1,30.26,ENE,61,3.2,7.0,94,0.12,,,0.59,WX3IN1Plus v1.30,2013-01-16 02:39:00,
2013-01-15 21:44:00,36.0,34.1,30.27,NE,52,1.6,3.2,94,0.12,,,0.60,WX3IN1Plus v1.30,2013-01-16 02:44:00,
2013-01-15 21:49:00,36.1,34.1,30.27,NE,35,0.9,4.9,94,0.14,,,0.62,WX3IN1Plus v1.30,2013-01-16 02:49:00,
2013-01-15 21:54:00,36.2,34.3,30.26,ENE,68,0.0,2.4,94,0.14,,,0.63,WX3IN1Plus v1.30,2013-01-16 02:54:00,
2013-01-15 21:59:00,36.0,34.1,30.26,NNE,14,1.4,3.3,94,0.14,,,0.64,WX3IN1Plus v1.30,2013-01-16 02:59:00,
2013-01-15 22:04:00,36.0,34.1,30.26,NE,40,4.1,5.3,94,0.15,,,0.66,WX3IN1Plus v1.30,2013-01-16 03:04:00,
2013-01-15 22:09:00,36.0,34.1,30.25,ESE,120,1.8,6.8,94,0.15,,,0.67,WX3IN1Plus v1.30,2013-01-16 03:09:00,
2013-01-15 22:14:00,35.7,33.9,30.24,East,90,3.6,6.5,94,0.15,,,0.68,WX3IN1Plus v1.30,2013-01-16 03:14:00,
2013-01-15 22:19:00,35.7,33.9,30.24,NE,52,2.4,5.0,94,0.15,,,0.69,WX3IN1Plus v1.30,2013-01-16 03:19:00,
2013-01-15 22:24:00,35.7,34.1,30.24,ENE,75,3.4,7.0,95,0.14,,,0.69,WX3IN1Plus v1.30,2013-01-16 03:24:00,
2013-01-15 22:29:00,35.6,34.1,30.23,NE,40,3.4,6.4,95,0.14,,,0.70,WX3IN1Plus v1.30,2013-01-16 03:29:00,
2013-01-15 22:34:00,35.5,33.9,30.23,NE,39,4.5,6.6,95,0.13,,,0.71,WX3IN1Plus v1.30,2013-01-16 03:34:00,
2013-01-15 22:39:00,35.5,33.9,30.23,ESE,109,1.8,5.3,95,0.12,,,0.71,WX3IN1Plus v1.30,2013-01-16 03:39:00,
2013-01-15 22:44:00,35.5,33.9,30.24,ENE,63,2.2,3.9,95,0.11,,,0.72,WX3IN1Plus v1.30,2013-01-16 03:44:00,
2013-01-15 22:49:00,35.4,33.6,30.24,ENE,57,3.4,6.1,95,0.11,,,0.73,WX3IN1Plus v1.30,2013-01-16 03:49:00,
2013-01-15 22:54:00,35.5,33.9,30.24,ESE,102,2.3,8.7,95,0.11,,,0.74,WX3IN1Plus v1.30,2013-01-16 03:54:00,
2013-01-15 22:59:00,35.5,33.9,30.24,NE,56,3.3,7.7,95,0.11,,,0.01,WX3IN1Plus v1.30,2013-01-16 03:59:00,
2013-01-15 23:04:00,35.4,33.6,30.25,ENE,66,2.0,6.4,95,0.10,,,0.02,WX3IN1Plus v1.30,2013-01-16 04:04:00,
2013-01-15 23:09:00,35.4,33.6,30.24,ESE,109,3.3,5.6,95,0.10,,,0.03,WX3IN1Plus v1.30,2013-01-16 04:09:00,
2013-01-15 23:14:00,35.3,33.6,30.23,ENE,67,4.5,8.0,95,0.10,,,0.04,WX3IN1Plus v1.30,2013-01-16 04:14:00,
2013-01-15 23:19:00,35.3,33.6,30.23,ENE,60,5.0,7.3,95,0.10,,,0.05,WX3IN1Plus v1.30,2013-01-16 04:19:00,
2013-01-15 23:24:00,35.2,33.6,30.22,East,87,1.8,8.0,95,0.12,,,0.07,WX3IN1Plus v1.30,2013-01-16 04:24:00,
2013-01-15 23:29:00,35.2,33.6,30.21,NNE,28,5.3,10.4,95,0.12,,,0.08,WX3IN1Plus v1.30,2013-01-16 04:29:00,
2013-01-15 23:34:00,35.2,33.6,30.22,NE,47,6.0,10.4,95,0.11,,,0.08,WX3IN1Plus v1.30,2013-01-16 04:34:00,
2013-01-15 23:39:00,34.9,33.4,30.22,NE,43,2.9,10.5,95,0.13,,,0.10,WX3IN1Plus v1.30,2013-01-16 04:39:00,
2013-01-15 23:44:00,35.1,33.6,30.21,ENE,67,2.0,5.4,95,0.13,,,0.11,WX3IN1Plus v1.30,2013-01-16 04:44:00,
2013-01-15 23:49:00,35.1,33.6,30.21,NE,35,3.9,6.2,95,0.13,,,0.12,WX3IN1Plus v1.30,2013-01-16 04:49:00,
2013-01-15 23:54:00,35.1,33.6,30.21,NE,47,4.7,7.3,95,0.13,,,0.13,WX3IN1Plus v1.30,2013-01-16 04:54:00,
2013-01-15 23:59:00,35.2,33.6,30.20,ESE,102,2.4,7.2,95,0.13,,,0.14,WX3IN1Plus v1.30,2013-01-16 04:59:00,